CW3081 Weather Reports


Display with metric or nautical units.
time (UTC)temp
F
wind
direction
speed
MPH
gust
MPH
rain 1hr
in
rain 24hr
in
rain mn
in
humidity
%
barometer
mb
20260831130058 71 0 0.0 0.0 0.00 0.00 0.00 97 1020.4
20260831124559 0 0.0 0.0 0.00 0.00 0.00 1020.3
20260831123052 0 0.0 0.0 0.00 0.00 0.00 1020.1
20260831121600 0 0.0 0.0 0.00 0.00 0.00 1020.0
20260831120053 0 0.0 0.0 0.00 0.00 0.00 1020.2
20260831114553 0 0.0 0.0 0.00 0.00 0.00 1020.1
20260831113054 0 0.0 0.0 0.00 0.00 0.00 1020.0
20260831111601 0 0.0 0.0 0.00 0.00 0.00 1019.8
20260831110056 0 0.0 0.0 0.00 0.00 0.00 1019.6
20260831104552 0 0.0 0.0 0.00 0.00 0.00 1019.5
20260831103101 0 0.0 0.0 0.00 0.00 0.00 1019.3
20260831101616 0 0.0 0.0 0.00 0.00 0.00 1019.1
20260831100108 0 0.0 0.0 0.00 0.00 0.00 1019.2
20260831094601 0 0 0.0 0.0 0.00 0.00 0.00 1019.0
20260831093102 71 0 0.0 0.0 0.00 0.00 0.00 95 1018.9
20260831091556 71 0 0.0 0.0 0.00 0.00 0.00 95 1018.7
20260831090105 71 0 0.0 0.0 0.00 0.00 0.00 95 1018.9
20260831084553 71 0 0.0 0.0 0.00 0.00 0.00 96 1018.6
20260831083107 71 0 0.0 0.0 0.00 0.00 0.00 96 1018.7
20260831081554 71 0 0.0 0.0 0.00 0.00 0.00 95 1018.6
20260831080054 71 0 0.0 0.0 0.00 0.00 0.00 95 1018.5
20260831074552 71 0 0.0 0.0 0.00 0.00 0.00 95 1018.4
20260831073103 71 0 0.0 0.0 0.00 0.00 0.00 95 1018.5
20260831071554 71 0 0.0 0.0 0.00 0.00 0.00 95 1018.6
20260831070052 71 0 0.0 0.0 0.00 0.00 0.00 95 1018.7
20260831064558 72 0 0.0 0.0 0.00 0.00 0.00 95 1018.8
20260831063052 72 0 0.0 0.0 0.00 0.00 0.00 95 1018.8
20260831061607 72 0 0.0 0.0 0.00 0.00 0.00 95 1018.9
20260831054558 72 0 0.0 0.0 0.00 0.00 0.00 95 1018.9
20260831053052 72 0 0.0 0.0 0.00 0.00 0.00 95 1018.9
20260831051623 72 0 0.0 0.0 0.00 0.00 0.00 95 1018.9
20260831050051 73 0 0.0 0.0 0.00 0.00 0.00 94 1018.9
20260831044601 73 0 0.0 0.0 0.00 0.00 0.00 94 1018.8
20260831043052 73 0 0.0 0.0 0.00 0.00 0.00 94 1018.8
20260831041605 73 0 0.0 0.0 0.00 0.00 0.00 94 1018.9
20260831040101 74 0 0.0 0.0 0.00 0.00 0.00 94 1018.9
20260831034551 74 0 0.0 0.0 0.00 0.00 0.00 94 1019.1
20260831033051 74 0 0.0 0.0 0.00 0.00 0.00 93 1019.0
20260831031548 74 0 0.0 0.0 0.00 0.00 0.00 93 1019.0
20260831030110 75 0 0.0 0.0 0.00 0.00 0.00 92 1019.0
20260831024639 75 0 0.0 0.0 0.00 0.00 0.00 92 1018.8
20260831023055 75 0 0.0 0.0 0.00 0.00 0.00 91 1018.8
20260831021558 76 0 0.0 0.0 0.00 0.00 0.00 91 1018.7
20260831020104 76 0 0.0 0.0 0.00 0.00 0.00 90 1018.7
20260831014603 76 0 0.0 0.0 0.00 0.00 0.00 90 1018.5
20260831013113 77 0 0.0 0.0 0.00 0.00 0.00 89 1018.2
20260831011555 78 0 0.0 0.0 0.00 0.00 0.00 88 1018.0
20260831010051 78 0 0.0 0.0 0.00 0.00 0.00 87 1017.8
20260831004551 79 0 0.0 0.0 0.00 0.00 0.00 85 1018.0
20260831003100 80 0 0.0 0.0 0.00 0.00 0.00 84 1017.9
20260831001551 82 0 0.0 0.0 0.00 0.00 0.00 82 1017.7
20260831000058 83 0 0.0 0.0 0.00 0.00 0.00 79 1017.7
20260830234603 84 0 0.0 0.0 0.00 0.00 0.00 78 1017.8
20260830233049 85 0 0.0 0.0 0.00 0.00 0.00 76 1017.6
20260830231601 85 0 0.0 0.0 0.00 0.00 0.00 75 1017.8
20260830230056 86 0 0.0 0.0 0.00 0.00 0.00 74 1017.8
20260830224555 87 0 0.0 0.0 0.00 0.00 0.00 71 1017.6
20260830223049 88 0 0.0 0.0 0.00 0.00 0.00 67 1017.8
20260830221559 88 0 0.0 1.0 0.00 0.00 0.00 66 1017.6
20260830220054 88 0 0.0 1.0 0.00 0.00 0.00 67 1017.5
20260830214558 89 273 0.0 1.0 0.00 0.00 0.00 65 1017.4
20260830213054 89 0 0.0 1.0 0.00 0.00 0.00 63 1017.6
20260830211554 89 188 0.0 1.0 0.00 0.00 0.00 63 1017.6
20260830204600 89 245 0.0 2.0 0.00 0.00 0.00 67 1017.7
20260830203117 90 203 0.0 1.0 0.00 0.00 0.00 67 1018.0
20260830201621 90 0 1.0 3.0 0.00 0.00 0.00 64 1018.3
20260830200104 90 264 1.0 2.0 0.00 0.00 0.00 62 1018.5
20260830194606 90 236 1.0 3.0 0.00 0.00 0.00 62 1018.7
20260830193053 90 226 0.0 2.0 0.00 0.00 0.00 64 1018.7
20260830191606 91 0 0.0 2.0 0.00 0.00 0.00 64 1018.8
20260830184557 90 189 0.0 1.0 0.00 0.00 0.00 66 1019.4
20260830183106 90 143 0.0 2.0 0.00 0.00 0.00 66 1019.5
20260830181623 89 147 1.0 2.0 0.00 0.00 0.00 68 1019.7
20260830180101 88 0 0.0 2.0 0.00 0.00 0.00 69 1019.9
20260830174559 88 0 0.0 2.0 0.00 0.00 0.00 68 1019.8
20260830173106 89 238 0.0 2.0 0.00 0.00 0.00 68 1019.8
20260830171550 88 148 1.0 3.0 0.00 0.00 0.00 69 1020.1
20260830170057 87 0 0.0 1.0 0.00 0.00 0.00 74 1020.2
20260830164619 87 209 0.0 3.0 0.00 0.00 0.00 72 1020.3
20260830163108 86 176 0.0 2.0 0.00 0.00 0.00 74 1020.4
20260830161554 85 265 0.0 1.0 0.00 0.00 0.00 77 1020.3
20260830160053 85 221 0.0 2.0 0.00 0.00 0.00 77 1020.5
20260830154559 84 217 0.0 2.0 0.00 0.00 0.00 79 1020.4
20260830153100 84 155 1.0 3.0 0.00 0.00 0.00 78 1020.4
20260830151554 83 0 1.0 3.0 0.00 0.00 0.00 80 1020.4
20260830150053 82 242 0.0 0.0 0.00 0.00 0.00 82 1020.4
20260830144600 81 0 0.0 0.0 0.00 0.00 0.00 84 1020.4
20260830143100 79 0 0.0 2.0 0.00 0.00 0.00 85 1020.4
20260830141555 78 229 0.0 1.0 0.00 0.00 0.00 89 1020.3
20260830140104 76 0 0.0 0.0 0.00 0.00 0.00 93 1020.4
20260830134601 74 0 0.0 1.0 0.00 0.00 0.00 96 1020.4
20260830133137 72 0 0.0 0.0 0.00 0.00 0.00 97 1020.4
20260830131609 70 0 0.0 0.0 0.00 0.00 0.00 97 1020.4